Flag for Germany Weather past 2 weeks in Paderborn, North Rhine-Westphalia, Germany

Now
48 °F

Passing clouds.


Feels Like: 47 °F
Forecast: 46 / 67 °F
Wind: 3 mph from Southwest

Location: Paderborn / Lippstadt


UV Index: 3 (Moderate)

Visibility: N/A


Pressure: 29.92 "Hg

Humidity: 94%

Dew point: 46 °F

Location of PaderbornLocation

Historic Weather in Paderborn

°F

Paderborn temperature yesterday

Maximum temperature yesterday: 57 °F (at 5:20 PM)
Minimum temperature yesterday: 32 °F (at 6:20 AM)
Average temperature yesterday: 48 °F

Past Weeks' High & Low Weather Summary

 TemperatureHumidityPressure
High68 °F (Apr 7, 4:50 PM)100% (Apr 5, 3:20 AM)30.45 "Hg (Apr 5, 3:20 AM)
Low28 °F (Apr 16, 4:50 AM)29% (Apr 17, 5:50 PM)29.77 "Hg (Apr 8, 5:50 AM)
Average49 °F71%30.08 "Hg
* Reported Apr 4 11:20 PM — Apr 19 11:50 PM, Paderborn, Weather by CustomWeather, © 2014

Note: Actual official high and low records may vary slightly from our data, if they occured in-between our weather recording intervals... More about our weather records

Advertising

Historic Weather Conditions — Data for Previous 24 hours

 ConditionsComfort  
Time TempWeatherWind HumidityBarometerVisibility
11:50 PM
Apr 19
46 °FClear.3 mph93%29.92 "Hg10 mi
11:20 PM48 °FClear.2 mph87%29.95 "Hg10 mi
10:50 PM50 °FClear.2 mph88%29.95 "Hg10 mi
10:20 PM50 °FPassing clouds.3 mph82%29.95 "HgN/A
9:50 PM50 °FPassing clouds.5 mph82%29.95 "HgN/A
9:20 PM52 °FPassing clouds.6 mph77%29.95 "HgN/A
8:50 PM50 °FPassing clouds.8 mph82%29.98 "HgN/A
8:20 PM55 °FPassing clouds.12 mph67%29.98 "HgN/A
7:50 PM55 °FPassing clouds.14 mph67%29.98 "HgN/A
7:20 PM57 °FSunny.15 mph59%29.95 "Hg10 mi
6:50 PM57 °FSunny.17 mph59%29.98 "Hg10 mi
6:20 PM57 °FSunny.16 mph63%29.98 "Hg10 mi
5:50 PM57 °FSunny.14 mph59%29.98 "Hg10 mi
5:20 PM57 °FPassing clouds.13 mph59%29.98 "HgN/A
4:50 PM55 °FPassing clouds.12 mph59%29.98 "HgN/A
4:20 PM55 °FPassing clouds.10 mph55%29.98 "HgN/A
3:50 PM55 °FPassing clouds.9 mph59%30.01 "HgN/A
3:20 PM55 °FPassing clouds.12 mph55%30.01 "HgN/A
2:50 PM55 °FPassing clouds.12 mph59%30.04 "HgN/A
2:20 PM54 °FPassing clouds.9 mph58%30.04 "HgN/A
1:50 PM55 °FPassing clouds.12 mph55%30.04 "HgN/A
1:20 PM52 °FPassing clouds.13 mph58%30.07 "HgN/A
12:50 PM52 °FPassing clouds.12 mph58%30.07 "HgN/A
12:20 PM52 °FPassing clouds.14 mph58%30.07 "HgN/A
11:50 AM50 °FPassing clouds.15 mph58%30.07 "HgN/A
11:20 AM50 °FPassing clouds.13 mph62%30.07 "HgN/A
10:50 AM48 °FPassing clouds.10 mph71%30.07 "HgN/A
10:20 AM46 °FPassing clouds.10 mph76%30.07 "HgN/A
9:50 AM43 °FPassing clouds.12 mph87%30.09 "HgN/A
9:20 AM43 °FScattered clouds.9 mph93%30.07 "HgN/A
8:50 AM39 °FPartly sunny.10 mph100%30.07 "Hg5 mi
8:20 AM39 °FFog.9 mph100%30.07 "Hg2 mi
7:50 AM39 °FFog.8 mph93%30.07 "Hg2 mi
7:20 AM36 °FPassing clouds.3 mph100%30.07 "Hg4 mi
6:50 AM36 °FPassing clouds.7 mph100%30.04 "Hg4 mi
6:20 AM32 °FLight fog.3 mph100%30.01 "Hg4 mi
5:50 AM34 °FLight fog.5 mph100%30.01 "Hg1 mi
5:20 AM37 °FPassing clouds.3 mph93%30.01 "HgN/A
4:50 AM37 °FPassing clouds.5 mph100%30.01 "HgN/A
4:20 AM37 °FPassing clouds.3 mph100%30.01 "HgN/A
Weather by CustomWeather, © 2014

See weather overview